GW7270 Weather Reports


Display with metric or nautical units.
time (UTC)temp
F
wind
direction
speed
MPH
gust
MPH
rain 1hr
in
rain 24hr
in
rain mn
in
humidity
%
barometer
mb
20260506062053 37 339 5.0 12.0 0.00 0.00 0.00 84 1008.7
20260506061552 37 347 5.0 12.0 0.00 0.00 0.00 84 1008.8
20260506061052 37 343 5.0 12.0 0.00 0.00 0.00 85 1008.6
20260506060553 37 349 5.0 12.0 0.00 0.00 0.00 85 1008.6
20260506050505 37 349 4.0 12.0 0.00 0.00 0.00 85 1009.0
20260506045005 37 343 3.0 12.0 0.00 0.00 0.00 86 1008.7
20260506043950 37 342 4.0 12.0 0.00 0.00 0.00 84 1008.5
20260506043450 37 354 3.0 12.0 0.00 0.00 0.00 82 1008.4
20260506042950 37 352 3.0 12.0 0.00 0.00 0.00 80 1008.5
20260506042449 37 354 2.0 12.0 0.00 0.00 0.00 78 1008.6
20260506041948 37 353 1.0 12.0 0.00 0.00 0.00 77 1008.6
20260506041448 37 343 2.0 12.0 0.00 0.00 0.00 77 1008.5
20260506040432 38 338 2.0 12.0 0.00 0.00 0.00 76 1008.5
20260506035931 38 336 2.0 12.0 0.00 0.00 0.00 77 1008.4
20260506035431 38 331 2.0 12.0 0.00 0.00 0.00 78 1008.4
20260506034416 38 329 1.0 12.0 0.00 0.00 0.00 80 1008.3
20260506033916 37 329 1.0 12.0 0.00 0.00 0.00 82 1008.5
20260506033415 36 265 1.0 12.0 0.00 0.00 0.00 84 1008.1
20260506032915 36 265 0.0 12.0 0.00 0.00 0.00 85 1008.1
20260506032414 36 265 0.0 12.0 0.00 0.00 0.00 86 1008.2
20260506031912 35 233 0.0 12.0 0.00 0.00 0.00 87 1007.9
20260506031412 35 233 0.0 12.0 0.00 0.00 0.00 86 1007.9
20260506030911 36 233 0.0 12.0 0.00 0.00 0.00 85 1008.1
20260506030410 36 233 0.0 12.0 0.00 0.00 0.00 84 1008.1
20260506025908 36 233 0.0 12.0 0.00 0.00 0.00 83 1008.1
20260506025409 36 233 0.0 12.0 0.00 0.00 0.00 81 1008.2
20260506024908 36 233 0.0 12.0 0.00 0.00 0.00 81 1008.2
20260506024408 37 194 0.0 12.0 0.00 0.00 0.00 82 1008.1
20260506023907 37 194 0.0 12.0 0.00 0.00 0.00 81 1008.2
20260506023407 37 194 0.0 12.0 0.00 0.00 0.00 82 1008.0
20260506022907 37 194 0.0 12.0 0.00 0.00 0.00 81 1007.9
20260506022407 37 194 0.0 12.0 0.00 0.00 0.00 81 1007.9
20260506021907 37 194 0.0 12.0 0.00 0.00 0.00 80 1007.9
20260506021407 37 194 0.0 12.0 0.00 0.00 0.00 81 1007.9
20260506020906 37 194 0.0 12.0 0.00 0.00 0.00 82 1007.8
20260506020405 37 194 0.0 12.0 0.00 0.00 0.00 82 1007.9
20260506015904 37 194 0.0 12.0 0.00 0.00 0.00 82 1007.9
20260506015404 37 194 0.0 12.0 0.00 0.00 0.00 81 1008.0
20260506013316 38 194 0.0 12.0 0.00 0.00 0.00 80 1007.5
20260506012816 38 194 0.0 12.0 0.00 0.00 0.00 80 1007.4
20260506012315 38 193 0.0 12.0 0.00 0.00 0.00 79 1007.4
20260506011815 39 204 1.0 12.0 0.00 0.00 0.00 79 1007.2
20260506011314 39 215 0.0 12.0 0.00 0.00 0.00 78 1007.3
20260506010814 39 213 0.0 12.0 0.00 0.00 0.00 78 1007.2
20260506005759 39 214 0.0 12.0 0.00 0.00 0.00 76 1006.9
20260506005259 39 224 1.0 12.0 0.00 0.00 0.00 76 1007.1
20260506004758 39 235 1.0 12.0 0.00 0.00 0.00 75 1007.0
20260506004258 40 209 1.0 12.0 0.00 0.00 0.00 74 1006.9
20260506003758 40 210 2.0 12.0 0.00 0.00 0.00 73 1006.9
20260506002742 41 214 1.0 12.0 0.00 0.00 0.00 72 1006.9
20260506002242 41 214 3.0 12.0 0.00 0.00 0.00 71 1006.8
20260506001741 41 211 1.0 12.0 0.00 0.00 0.00 71 1006.9
20260506001240 42 222 1.0 12.0 0.00 0.00 0.00 69 1006.8
20260506000739 43 243 1.0 12.0 0.00 0.00 0.00 67 1006.8
20260505235722 44 263 0.0 12.0 0.00 0.00 0.00 62 1006.8
20260505234706 44 260 0.0 12.0 0.00 0.00 0.00 64 1006.8
20260505234206 44 260 0.0 12.0 0.00 0.00 0.00 62 1006.9
20260505233706 44 260 0.0 12.0 0.00 0.00 0.00 61 1006.8
20260505233206 44 260 0.0 12.0 0.00 0.00 0.00 62 1006.9
20260505232706 44 239 0.0 12.0 0.00 0.00 0.00 63 1006.7
20260505232206 44 230 0.0 12.0 0.00 0.00 0.00 63 1006.8
20260505231706 44 255 0.0 12.0 0.00 0.00 0.00 62 1006.8
20260505230650 45 263 1.0 12.0 0.00 0.00 0.00 60 1006.8
20260505230149 45 237 2.0 12.0 0.00 0.00 0.00 59 1006.8
20260505225649 45 241 1.0 12.0 0.00 0.00 0.00 60 1006.8
20260505225149 44 220 1.0 12.0 0.00 0.00 0.00 61 1006.9
20260505224649 45 210 3.0 12.0 0.00 0.00 0.00 59 1006.9
20260505224149 45 242 1.0 12.0 0.00 0.00 0.00 59 1006.8
20260505223649 45 232 1.0 12.0 0.00 0.00 0.00 59 1006.8
20260505223149 45 228 2.0 12.0 0.00 0.00 0.00 59 1006.2
20260505222649 45 214 3.0 12.0 0.00 0.00 0.00 57 1006.6
20260505222149 45 215 3.0 12.0 0.00 0.00 0.00 58 1006.7
20260505221649 44 202 5.0 12.0 0.00 0.00 0.00 59 1006.7
20260505221149 44 207 4.0 12.0 0.00 0.00 0.00 59 1006.8
20260505220649 45 210 3.0 12.0 0.00 0.00 0.00 58 1006.8
20260505215632 45 240 3.0 12.0 0.00 0.00 0.00 58 1006.7
20260505215131 46 239 2.0 12.0 0.00 0.00 0.00 59 1006.6
20260505214630 45 239 1.0 12.0 0.00 0.00 0.00 59 1006.7
20260505214129 46 203 7.0 12.0 0.00 0.00 0.00 57 1006.5
20260505213628 47 223 3.0 12.0 0.00 0.00 0.00 57 1006.5
20260505213127 48 220 2.0 12.0 0.00 0.00 0.00 59 1006.3
20260505212627 48 280 2.0 12.0 0.00 0.00 0.00 55 1006.4
20260505212127 48 228 3.0 12.0 0.00 0.00 0.00 55 1005.8
20260505211627 48 244 1.0 12.0 0.00 0.00 0.00 57 1005.8
20260505211127 47 247 2.0 12.0 0.00 0.00 0.00 56 1005.9
20260505210626 46 234 2.0 12.0 0.00 0.00 0.00 59 1005.8
20260505205611 47 220 4.0 12.0 0.00 0.00 0.00 56 1005.7
20260505204554 48 236 2.0 12.0 0.00 0.00 0.00 54 1005.8
20260505204054 48 244 3.0 12.0 0.00 0.00 0.00 55 1005.4
20260505203553 48 243 3.0 12.0 0.00 0.00 0.00 54 1005.8
20260505203052 48 283 1.0 12.0 0.00 0.00 0.00 54 1005.8
20260505202552 48 238 1.0 12.0 0.00 0.00 0.00 57 1006.1
20260505201536 47 293 4.0 12.0 0.00 0.00 0.00 54 1006.0
20260505201036 47 279 4.0 12.0 0.00 0.00 0.00 55 1005.9
20260505200536 48 280 4.0 12.0 0.00 0.00 0.00 55 1005.8
20260505200036 48 281 2.0 12.0 0.00 0.00 0.00 55 1005.4
20260505195020 48 266 4.0 12.0 0.00 0.00 0.00 52 1005.4
20260505194519 47 291 2.0 13.0 0.00 0.00 0.00 54 1005.5
20260505194018 46 304 8.0 15.0 0.00 0.00 0.00 55 1005.4
20260505193002 47 276 5.0 12.0 0.00 0.00 0.00 54 1005.4
20260505192502 48 278 4.0 15.0 0.00 0.00 0.00 53 1005.1
20260505192002 46 325 9.0 15.0 0.00 0.00 0.00 53 1005.2
20260505191502 47 308 5.0 17.0 0.00 0.00 0.00 53 1004.9
20260505191001 47 313 7.0 17.0 0.00 0.00 0.00 52 1004.9
20260505190501 47 304 8.0 17.0 0.00 0.00 0.00 50 1005.1
20260505190001 47 303 9.0 19.0 0.00 0.00 0.00 49 1004.7
20260505185501 48 312 7.0 19.0 0.00 0.00 0.00 49 1004.8
20260505185000 47 309 6.0 17.0 0.00 0.00 0.00 50 1004.5
20260505184459 46 309 9.0 20.0 0.00 0.00 0.00 51 1004.6
20260505183959 47 312 7.0 20.0 0.00 0.00 0.00 49 1004.4
20260505183459 47 302 10.0 17.0 0.00 0.00 0.00 49 1004.7
20260505182959 47 307 10.0 17.0 0.00 0.00 0.00 51 1004.5
20260505182459 47 326 8.0 16.0 0.00 0.00 0.00 52 1004.7
20260505181443 45 316 8.0 20.0 0.00 0.00 0.00 56 1004.6
20260505180942 46 308 10.0 17.0 0.00 0.00 0.00 51 1004.5
20260505180441 47 314 10.0 16.0 0.00 0.00 0.00 51 1003.6
20260505175940 47 317 9.0 20.0 0.00 0.00 0.00 53 1004.2
20260505174924 46 328 9.0 21.0 0.00 0.00 0.00 54 1003.4
20260505173909 46 332 8.0 21.0 0.00 0.00 0.00 55 1003.2
20260505173408 46 314 10.0 17.0 0.00 0.00 0.00 55 1004.1
20260505172907 46 314 8.0 17.0 0.00 0.00 0.00 57 1004.1
20260505172407 45 314 10.0 21.0 0.00 0.00 0.00 56 1003.9
20260505171350 45 322 10.0 17.0 0.00 0.00 0.00 54 1003.2
20260505170334 45 303 7.0 20.0 0.00 0.00 0.00 58 1004.2
20260505165833 45 301 6.0 20.0 0.00 0.00 0.00 59 1004.2
20260505165333 45 322 7.0 21.0 0.00 0.00 0.00 59 1004.2
20260505164832 45 329 8.0 21.0 0.00 0.00 0.00 59 1004.0
20260505164331 45 338 9.0 20.0 0.00 0.00 0.00 61 1003.4
20260505163831 44 326 10.0 19.0 0.00 0.00 0.00 61 1004.3
20260505163330 45 302 7.0 19.0 0.00 0.00 0.00 61 1004.0
20260505162830 45 317 9.0 21.0 0.00 0.00 0.00 62 1004.1
20260505162329 45 310 6.0 21.0 0.00 0.00 0.00 64 1004.0
20260505161829 44 298 10.0 20.0 0.00 0.00 0.00 63 1004.2
20260505161328 45 327 11.0 15.0 0.00 0.00 0.00 62 1004.2
20260505160313 45 284 7.0 16.0 0.00 0.00 0.00 67 1004.2
20260505153257 45 330 7.0 20.0 0.00 0.00 0.00 63 1003.4
20260505152240 44 309 12.0 19.0 0.00 0.00 0.00 62 1002.9
20260505151739 44 322 13.0 19.0 0.00 0.00 0.00 64 1003.1
20260505151239 44 303 9.0 16.0 0.00 0.00 0.00 70 1003.0
20260505150738 44 326 8.0 15.0 0.00 0.00 0.00 70 1002.9
20260505150237 44 316 8.0 15.0 0.00 0.00 0.00 68 1002.6
20260505140145 42 323 6.0 14.0 0.00 0.00 0.00 70 1000.8
20260505124555 42 332 9.0 14.0 0.00 0.00 0.00 73 999.9
20260505123540 43 330 6.0 14.0 0.00 0.00 0.00 75 999.6
20260505122525 42 337 8.0 14.0 0.00 0.00 0.00 76 999.3
20260505122024 42 335 9.0 15.0 0.00 0.00 0.00 76 999.1
20260505121524 42 343 7.0 15.0 0.00 0.00 0.00 76 999.1
20260505120508 42 334 9.0 16.0 0.00 0.00 0.00 76 999.1
20260505120008 42 337 7.0 13.0 0.00 0.00 0.00 76 999.1
20260505115508 43 329 6.0 13.0 0.00 0.00 0.00 76 998.9
20260505114452 42 322 7.0 14.0 0.00 0.00 0.00 76 998.8
20260505113952 42 315 7.0 14.0 0.00 0.00 0.00 77 997.7
20260505113452 42 327 7.0 14.0 0.00 0.00 0.00 77 997.9
20260505112951 42 325 7.0 13.0 0.00 0.00 0.00 77 997.6
20260505112451 42 337 6.0 13.0 0.00 0.00 0.00 78 997.2
20260505111950 42 340 6.0 13.0 0.00 0.00 0.00 78 997.1
20260505111449 42 334 7.0 13.0 0.00 0.00 0.00 78 997.0
20260505110949 42 335 7.0 13.0 0.00 0.00 0.00 78 996.8
20260505101930 42 323 5.0 15.0 0.00 0.00 0.00 79 996.2
20260505100914 43 324 6.0 15.0 0.00 0.00 0.00 78 996.2
20260505095859 43 336 6.0 13.0 0.00 0.00 0.00 79 995.5
20260505095358 43 332 8.0 13.0 0.00 0.00 0.00 79 995.2
20260505094857 42 331 7.0 13.0 0.00 0.00 0.00 80 994.9
20260505094356 42 335 6.0 13.0 0.00 0.00 0.00 80 994.6
20260505093855 42 337 7.0 13.0 0.00 0.00 0.00 80 994.4
20260505093355 42 333 7.0 14.0 0.00 0.00 0.00 80 994.3
20260505092855 42 347 6.0 14.0 0.00 0.00 0.00 81 994.5
20260505092354 42 334 7.0 14.0 0.00 0.00 0.00 81 994.7
20260505091853 42 343 5.0 14.0 0.00 0.00 0.00 82 994.5
20260505090837 42 339 7.0 14.0 0.00 0.00 0.00 82 994.3
20260505090337 42 346 6.0 15.0 0.00 0.00 0.00 82 994.4
20260505085836 42 340 8.0 15.0 0.00 0.00 0.00 82 994.1
20260505085335 42 348 6.0 16.0 0.00 0.00 0.00 83 993.9
20260505084835 42 344 7.0 16.0 0.00 0.00 0.00 84 994.1
20260505084335 42 339 7.0 16.0 0.00 0.00 0.00 84 994.1
20260505083835 42 341 7.0 16.0 0.00 0.00 0.00 85 993.9
20260505083334 42 333 8.0 16.0 0.00 0.00 0.00 86 993.9
20260505082319 42 337 5.0 13.0 0.00 0.00 0.00 89 993.9
20260505081818 42 337 4.0 13.0 0.00 0.00 0.00 89 993.7
20260505080802 42 338 7.0 13.0 0.00 0.00 0.00 89 993.8
20260505080303 43 342 6.0 13.0 0.00 0.00 0.00 89 993.6
20260505075802 43 343 4.0 13.0 0.00 0.00 0.00 88 993.6
20260505075304 43 346 6.0 13.0 0.00 0.00 0.00 88 993.6
20260505074801 43 336 7.0 13.0 0.00 0.00 0.00 89 993.6
20260505074301 43 333 7.0 13.0 0.00 0.00 0.00 89 993.4
20260505073800 43 336 7.0 13.0 0.00 0.00 0.00 90 993.2
20260505072745 44 331 4.0 11.0 0.00 0.00 0.00 92 993.3
20260505071731 44 321 4.0 11.0 0.00 0.00 0.00 92 993.5
20260505070201 44 337 5.0 11.0 0.00 0.00 0.00 92 993.6
20260505065701 43 320 5.0 11.0 0.00 0.00 0.00 92 993.8
20260505065201 43 341 3.0 11.0 0.00 0.00 0.00 92 993.7